[[{"header":{"parameterUnit":"m.s-1","parameterCategory":1,"la1":30.2991,"la2":30.254,"lo1":-89.0895,"lo2":-89.0444,"dy":0.0017,"dx":0.0017,"nx":28,"ny":28,"refTime":"2025-03-08T03:00:00:Z","depth":0,"parameterNumber":2,"parameterNumberName":"U-component_of_WINDS"},"data":[0,0,0,0,0,0,0,0,0,0,0,0,0,0,0,0,0,0,0,0,0,0,0,0,0,0,0,0,0,0,0,0,0,0,0,0,0,0,0,0,0,0,0,0,0,0,0,0,0,0,0,0,0,0,0,0,0,0,2.7499,2.7498,0,2.7463,2.7463,2.7463,2.7435,2.7434,2.7434,2.7434,2.7398,2.7397,2.7397,0,0,0,0,0,0,0,0,0,0,0,0,0,2.7543,2.7542,2.7499,2.7498,2.7498,2.7463,2.7463,2.7462,2.7435,2.7434,2.7434,2.7434,2.7398,2.7397,2.7397,0,0,0,0,0,0,0,0,0,0,0,0,0,2.7517,2.7542,2.7499,2.748,2.7478,2.7464,2.7463,2.7462,2.7435,2.7434,2.7434,2.7433,2.7398,2.7397,2.7396,2.7398,0,0,2.7393,2.7393,0,0,0,0,0,0,0,0,2.7519,2.7516,2.7483,2.7481,2.7479,2.7453,2.7465,2.7441,2.7435,2.7451,2.7434,2.7433,2.7417,2.7414,2.7408,2.7397,2.7395,2.7393,2.7393,2.7392,2.7392,0,0,0,0,0,0,0,2.7521,2.7517,2.7485,2.7483,2.748,2.7473,2.7469,2.7461,2.7437,2.745,2.7447,2.7444,2.7415,2.7409,2.7407,2.7395,2.7393,2.7392,2.7392,2.7391,2.7385,2.7385,0,0,0,0,0,0,2.7525,2.7519,2.7486,2.7484,2.7498,2.7473,2.7468,2.7462,2.7437,2.7432,2.7444,2.7442,2.7411,2.7409,2.7406,2.7408,2.7392,2.7391,2.7391,2.7384,2.7385,2.7385,0,0,0,0,0,0,2.7526,2.7523,2.7487,2.7501,2.7496,2.7473,2.7465,2.7461,2.7455,2.7432,2.7428,2.7442,2.7411,2.7407,2.7401,2.7406,2.7391,2.739,2.7384,2.7384,2.7385,2.7411,0,0,0,0,0,0,2.7528,2.7523,2.7523,2.7501,2.7495,2.7482,2.7466,2.7461,2.7453,2.7451,2.743,2.7426,2.741,2.7403,2.74,2.7405,2.7389,2.7383,2.7384,2.7385,2.741,2.7413,2.7415,0,0,0,0,0,2.753,2.7532,2.7524,2.752,2.7495,2.7483,2.7479,2.7462,2.7454,2.7454,2.744,2.7426,2.7406,2.7402,2.7399,2.7403,2.7383,2.7384,2.7385,2.7408,2.7412,2.7415,0,0,0,0,0,0,2.7555,2.7528,2.7519,2.7514,2.7501,2.7478,2.7478,2.7466,2.7454,2.7453,2.7431,2.7427,2.7423,2.7412,2.7408,2.7405,2.7393,2.7393,2.7412,2.7415,2.7418,2.7421,2.7388,0,0,0,0,0,2.756,2.7553,2.753,2.7527,2.7521,2.7501,2.7495,2.7482,2.7468,2.7462,2.7447,2.7434,2.7425,2.7419,2.7409,2.7408,2.7404,2.7409,2.7412,2.7414,2.7415,2.7415,2.7418,2.7389,2.7389,2.7389,0,0,2.7571,2.7555,2.7551,2.7532,2.7521,2.7514,2.7496,2.7489,2.7484,2.7461,2.7455,2.7443,2.7427,2.7424,2.7421,2.7415,2.7423,2.7416,2.7418,2.7417,2.7417,2.742,2.7422,2.7389,2.7389,2.7389,0,0,2.7586,2.7573,2.7571,2.756,2.7543,2.7529,2.7529,2.7508,2.75,2.7493,2.7476,2.747,2.7454,2.7443,2.7436,2.745,2.7437,2.7447,2.7461,2.7462,2.7464,2.7466,2.7472,2.7474,2.7448,2.7448,2.7448,0,2.7602,2.759,2.7571,2.7566,2.7558,2.7538,2.7535,2.7526,2.7506,2.7502,2.7495,2.7475,2.7463,2.7458,2.7461,2.7455,2.7455,2.7449,2.7465,2.7467,2.7468,2.7474,2.7476,2.7449,2.7449,2.7449,2.7449,0,2.7611,2.7603,2.7603,2.7586,2.7578,2.7574,2.7555,2.755,2.7539,2.7526,2.752,2.7505,2.7492,2.749,2.7478,2.7483,2.748,2.7469,2.7457,2.7473,2.7478,2.748,2.7451,2.7451,2.745,2.745,0,0,2.7641,2.7614,2.7614,2.7607,2.7587,2.7581,2.7577,2.7564,2.7561,2.7549,2.7545,2.7533,2.7524,2.7516,2.7503,2.7503,2.7516,2.7492,2.7492,2.7499,2.7523,2.7532,2.7535,2.7508,2.7508,2.7509,2.7525,0,2.7654,2.7646,2.7629,2.7626,2.762,2.76,2.7597,2.7585,2.7573,2.7567,2.7554,2.7546,2.7534,2.7529,2.7528,2.7515,2.7521,2.7513,2.7506,2.7506,2.7512,2.7537,2.7546,2.7562,2.7526,2.7527,2.7527,0,2.7669,2.7658,2.7655,2.7637,2.7633,2.7631,2.7619,2.7613,2.7599,2.7591,2.7582,2.7569,2.7564,2.7552,2.7547,2.7542,2.7538,2.7531,2.7531,2.7531,2.7518,2.7538,2.7566,2.7569,2.753,2.7529,2.7529,0,2.7693,2.7678,2.7674,2.7668,2.7647,2.7645,2.7636,2.7622,2.7617,2.7607,2.7603,2.7592,2.7587,2.7579,2.7564,2.7556,2.756,2.7547,2.7554,2.7555,2.7556,2.7557,2.7586,2.7552,2.7552,2.7552,2.7552,0,2.771,2.7709,2.7685,2.7683,2.7682,2.7663,2.7662,2.7651,2.7639,2.7635,2.7618,2.7615,2.7593,2.7588,2.7575,2.7574,2.7571,2.7565,2.7562,2.7567,2.7568,2.7565,2.7564,2.7553,2.7553,2.7552,2.7552,0,2.7737,2.7721,2.7716,2.7696,2.7692,2.7692,2.7675,2.7673,2.7661,2.7656,2.7654,2.7635,2.7628,2.7611,2.7599,2.7591,2.7593,2.7587,2.7598,2.7596,2.7605,2.7605,2.7634,2.7637,2.7601,2.7601,2.7601,0,2.775,2.7749,2.7729,2.7726,2.7718,2.7712,2.7706,2.7688,2.7683,2.7668,2.7668,2.766,2.7652,2.7642,2.7627,2.7619,2.7612,2.7623,2.7611,2.7617,2.7614,2.7615,2.7616,2.7626,2.7627,2.7627,2.7627,0,2.7774,2.7767,2.7759,2.7749,2.7743,2.7735,2.7725,2.7723,2.7703,2.7698,2.7691,2.7685,2.7674,2.7666,2.7655,2.7647,2.7634,2.7631,2.7633,2.7639,2.7646,2.7644,2.7607,2.7631,2.763,2.763,2.763,2.763,2.7795,2.7794,2.7781,2.7774,2.7765,2.7756,2.7754,2.7742,2.7735,2.7725,2.7715,2.7709,2.7697,2.7681,2.7674,2.7669,2.7663,2.7665,2.7665,2.7666,2.767,2.7646,2.7667,2.7667,2.7667,2.7667,2.7667,0,2.782,2.7811,2.7804,2.7792,2.7787,2.7775,2.7765,2.7761,2.7756,2.7746,2.7739,2.7732,2.7725,2.771,2.7702,2.7701,2.7696,2.77,2.77,2.7699,2.7675,2.7675,2.7705,2.7705,2.7705,2.7705,2.7705,2.7705,2.7832,2.783,2.7821,2.7815,2.7806,2.78,2.7796,2.7788,2.778,2.7773,2.7767,2.7758,2.7746,2.7737,2.7731,2.7726,2.7725,2.7732,2.7726,2.7704,2.77,2.7697,2.7697,2.7731,2.7731,2.775,2.7751,2.7751]},{"header":{"parameterUnit":"m.s-1","parameterCategory":1,"la1":30.2991,"la2":30.254,"lo1":-89.0895,"lo2":-89.0444,"dy":0.0017,"dx":0.0017,"nx":28,"ny":28,"refTime":"2025-03-08T03:00:00:Z","depth":0,"parameterNumber":3,"parameterNumberName":"V-component_of_WINDS"},"data":[0,0,0,0,0,0,0,0,0,0,0,0,0,0,0,0,0,0,0,0,0,0,0,0,0,0,0,0,0,0,0,0,0,0,0,0,0,0,0,0,0,0,0,0,0,0,0,0,0,0,0,0,0,0,0,0,0,0,-0.8713,-0.8713,0,-0.8703,-0.8703,-0.8703,-0.8716,-0.8716,-0.8717,-0.8717,-0.8703,-0.8702,-0.8702,0,0,0,0,0,0,0,0,0,0,0,0,0,-0.8742,-0.8741,-0.8713,-0.8713,-0.8713,-0.8703,-0.8703,-0.8703,-0.8716,-0.8716,-0.8717,-0.8718,-0.8704,-0.8703,-0.8702,0,0,0,0,0,0,0,0,0,0,0,0,0,-0.873,-0.8741,-0.8713,-0.8719,-0.8719,-0.8703,-0.8703,-0.8703,-0.8716,-0.8716,-0.8717,-0.8718,-0.8704,-0.8703,-0.8701,-0.8679,0,0,-0.8698,-0.8697,0,0,0,0,0,0,0,0,-0.8731,-0.8729,-0.8718,-0.8718,-0.8719,-0.8712,-0.8708,-0.8695,-0.8716,-0.8717,-0.8717,-0.8718,-0.8705,-0.8704,-0.87,-0.8678,-0.8678,-0.8697,-0.8697,-0.8696,-0.8696,0,0,0,0,0,0,0,-0.8732,-0.873,-0.8709,-0.8718,-0.8718,-0.8721,-0.872,-0.8705,-0.8707,-0.8717,-0.8718,-0.8717,-0.8705,-0.8701,-0.87,-0.8677,-0.8697,-0.8696,-0.8696,-0.8695,-0.8638,-0.8637,0,0,0,0,0,0,-0.8732,-0.873,-0.8709,-0.8709,-0.8727,-0.8719,-0.8719,-0.8713,-0.8707,-0.8707,-0.8716,-0.8717,-0.8703,-0.8701,-0.87,-0.8674,-0.8696,-0.8695,-0.8694,-0.8639,-0.8638,-0.8637,0,0,0,0,0,0,-0.8733,-0.873,-0.871,-0.872,-0.8718,-0.8718,-0.8712,-0.8712,-0.8708,-0.8707,-0.8707,-0.8712,-0.8704,-0.8701,-0.8685,-0.8673,-0.8694,-0.8693,-0.864,-0.8638,-0.8637,-0.8622,0,0,0,0,0,0,-0.8734,-0.8731,-0.8722,-0.872,-0.8717,-0.8696,-0.8711,-0.8712,-0.8707,-0.8708,-0.8702,-0.8702,-0.8704,-0.8686,-0.8683,-0.8672,-0.8692,-0.8641,-0.8639,-0.8638,-0.8623,-0.862,-0.8617,0,0,0,0,0,-0.8735,-0.8717,-0.8722,-0.8719,-0.8707,-0.8695,-0.8693,-0.8697,-0.8706,-0.8697,-0.8696,-0.8702,-0.8675,-0.8684,-0.8681,-0.8669,-0.8641,-0.8639,-0.8638,-0.8624,-0.8621,-0.8617,0,0,0,0,0,0,-0.8717,-0.8717,-0.8722,-0.8703,-0.8699,-0.8697,-0.8687,-0.8693,-0.8685,-0.8687,-0.869,-0.8689,-0.8671,-0.8669,-0.8679,-0.8648,-0.866,-0.8657,-0.865,-0.8647,-0.8644,-0.8645,-0.8691,0,0,0,0,0,-0.8711,-0.8703,-0.8703,-0.8686,-0.8684,-0.8686,-0.8681,-0.8684,-0.8679,-0.8677,-0.8675,-0.8669,-0.866,-0.8653,-0.8644,-0.8623,-0.8622,-0.8613,-0.861,-0.8608,-0.8606,-0.8596,-0.8592,-0.8631,-0.8631,-0.8631,0,0,-0.8699,-0.8698,-0.8691,-0.8683,-0.868,-0.867,-0.8684,-0.8673,-0.8666,-0.8675,-0.866,-0.8658,-0.8652,-0.8633,-0.8625,-0.863,-0.8595,-0.8606,-0.8604,-0.8603,-0.8593,-0.859,-0.8586,-0.863,-0.863,-0.863,0,0,-0.8671,-0.8669,-0.8656,-0.8653,-0.865,-0.8651,-0.8648,-0.8646,-0.8645,-0.863,-0.8638,-0.8629,-0.8612,-0.8608,-0.8603,-0.8576,-0.8581,-0.8573,-0.8558,-0.8548,-0.8545,-0.8542,-0.8533,-0.8529,-0.857,-0.857,-0.857,0,-0.8655,-0.8642,-0.8648,-0.8637,-0.8633,-0.8643,-0.863,-0.8626,-0.8619,-0.8616,-0.8623,-0.8603,-0.8599,-0.858,-0.8574,-0.857,-0.8566,-0.8573,-0.8545,-0.8542,-0.854,-0.8531,-0.8527,-0.8569,-0.8569,-0.857,-0.857,0,-0.8624,-0.8614,-0.8604,-0.8599,-0.8594,-0.8581,-0.8585,-0.8579,-0.8583,-0.8584,-0.8569,-0.8565,-0.8556,-0.8552,-0.8555,-0.8534,-0.8538,-0.8544,-0.8556,-0.8535,-0.8527,-0.8523,-0.8568,-0.8568,-0.8569,-0.8569,0,0,-0.8584,-0.8583,-0.8579,-0.8578,-0.8575,-0.8568,-0.8556,-0.8549,-0.8544,-0.8539,-0.8529,-0.8515,-0.8522,-0.8517,-0.852,-0.8511,-0.8491,-0.852,-0.8519,-0.8515,-0.8468,-0.8464,-0.846,-0.8495,-0.8494,-0.8494,-0.8469,0,-0.8557,-0.8538,-0.8544,-0.8524,-0.8516,-0.8526,-0.8516,-0.8513,-0.8514,-0.8506,-0.8506,-0.8497,-0.8507,-0.8504,-0.8496,-0.8495,-0.8482,-0.8497,-0.8486,-0.8485,-0.8487,-0.8455,-0.845,-0.8427,-0.8466,-0.8465,-0.8465,0,-0.8523,-0.8518,-0.8499,-0.8499,-0.8496,-0.8487,-0.8481,-0.8474,-0.8471,-0.8472,-0.8468,-0.8473,-0.8461,-0.8473,-0.8457,-0.8467,-0.8463,-0.8462,-0.8461,-0.846,-0.8474,-0.8454,-0.8419,-0.8416,-0.846,-0.846,-0.8461,0,-0.8496,-0.8485,-0.8473,-0.8471,-0.8471,-0.8464,-0.8463,-0.8461,-0.8457,-0.8452,-0.8449,-0.8442,-0.8438,-0.8433,-0.8436,-0.8444,-0.8419,-0.8431,-0.842,-0.842,-0.8414,-0.8414,-0.8379,-0.8411,-0.8411,-0.8411,-0.8411,0,-0.8466,-0.8454,-0.8461,-0.8453,-0.844,-0.8447,-0.8433,-0.8433,-0.8432,-0.8424,-0.8431,-0.8424,-0.8428,-0.8421,-0.8423,-0.841,-0.8407,-0.8408,-0.8409,-0.8408,-0.8408,-0.8405,-0.8407,-0.841,-0.841,-0.841,-0.841,0,-0.8434,-0.8439,-0.8426,-0.8427,-0.8427,-0.8418,-0.8418,-0.8411,-0.8413,-0.8403,-0.8401,-0.8404,-0.8395,-0.8398,-0.8388,-0.839,-0.8374,-0.8376,-0.8375,-0.8376,-0.8365,-0.8366,-0.8326,-0.8322,-0.8356,-0.8356,-0.8355,0,-0.8415,-0.8406,-0.8407,-0.8403,-0.8402,-0.8395,-0.8392,-0.8398,-0.8394,-0.839,-0.8383,-0.8376,-0.8371,-0.8357,-0.8358,-0.8351,-0.8354,-0.834,-0.8353,-0.8352,-0.8354,-0.8355,-0.8354,-0.8338,-0.8337,-0.8337,-0.8337,0,-0.838,-0.8383,-0.8378,-0.8374,-0.837,-0.8367,-0.8364,-0.836,-0.8366,-0.8361,-0.8354,-0.835,-0.8341,-0.8334,-0.8328,-0.8327,-0.8333,-0.8333,-0.833,-0.8329,-0.8329,-0.833,-0.8369,-0.8334,-0.8334,-0.8334,-0.8334,-0.8335,-0.8354,-0.8347,-0.8347,-0.8342,-0.8341,-0.8339,-0.8332,-0.8334,-0.8329,-0.8323,-0.8327,-0.8318,-0.8317,-0.831,-0.8308,-0.8301,-0.8306,-0.8301,-0.83,-0.8299,-0.8298,-0.833,-0.83,-0.83,-0.83,-0.83,-0.83,0,-0.832,-0.8321,-0.8316,-0.8313,-0.8309,-0.8316,-0.8314,-0.831,-0.8303,-0.8301,-0.8297,-0.8288,-0.8282,-0.8283,-0.8277,-0.8271,-0.8274,-0.8269,-0.827,-0.827,-0.8294,-0.8297,-0.8268,-0.8268,-0.8268,-0.8268,-0.8268,-0.8268,-0.8302,-0.8291,-0.8294,-0.8284,-0.8284,-0.8277,-0.8276,-0.8274,-0.8273,-0.8264,-0.8259,-0.826,-0.826,-0.8254,-0.8248,-0.8249,-0.8246,-0.8241,-0.8243,-0.8265,-0.8268,-0.8271,-0.8274,-0.824,-0.824,-0.8219,-0.8219,-0.8219]}]]